This is the latest recevied weather packets stored in our database for station/object VR2OT-10. If no packets are shown the sender has not sent any weather packets the latest 10 day(s).
| Time | Temp. | Humidity | Pressure | Rain* | Wind** | Luminosity | Snow |
|---|---|---|---|---|---|---|---|
| 1777476739 | 21.67° C | 72% | 1014.1 hPa | - | 4.92 m/s, 315° | - | - |
| 1777475838 | 21.67° C | 70% | 1014.1 hPa | - | 3.58 m/s, 315° | - | - |
| 1777474038 | 22.22° C | 76% | 1013.8 hPa | - | 1.79 m/s, 315° | - | - |
| 1777473138 | 22.22° C | 78% | 1013.3 hPa | - | 3.13 m/s, 315° | - | - |
| 1777472237 | 22.22° C | 79% | 1013.3 hPa | - | 3.13 m/s, 315° | - | - |
| 1777471338 | 22.22° C | 79% | 1013.3 hPa | - | 4.02 m/s, 315° | - | - |
| 1777469539 | 21.67° C | 81% | 1012.8 hPa | - | 2.68 m/s, 45° | - | - |
| 1777468638 | 21.67° C | 82% | 1012.6 hPa | - | 3.13 m/s, 45° | - | - |
| 1777467737 | 22.22° C | 86% | 1012.1 hPa | - | 3.13 m/s, 0° | - | - |
| 1777466837 | 22.22° C | 87% | 1011.8 hPa | - | 1.79 m/s, 0° | - | - |
| 1777465938 | 22.22° C | 88% | 1011.7 hPa | - | 2.24 m/s, 0° | - | - |
| 1777465038 | 22.78° C | 87% | 1011.6 hPa | - | 1.34 m/s, 0° | - | - |
| 1777463238 | 23.89° C | 88% | 1011.2 hPa | - | 1.79 m/s, 315° | - | - |
| 1777462338 | 23.89° C | 87% | 1010.8 hPa | - | 1.34 m/s, 315° | - | - |
| 1777461438 | 23.89° C | 88% | 1010.8 hPa | - | 2.68 m/s, 315° | - | - |
| 1777460539 | 23.89° C | 92% | 1010.5 hPa | - | 2.24 m/s, 270° | - | - |
| 1777458738 | 23.89° C | 93% | 1010.2 hPa | - | 0.89 m/s, 225° | - | - |
| 1777456938 | 23.89° C | 92% | 1009.8 hPa | - | 1.79 m/s, 225° | - | - |
| 1777456038 | 24.44° C | 93% | 1009.8 hPa | - | 1.79 m/s, 270° | - | - |
| 1777455139 | 26.11° C | 88% | 1009.8 hPa | - | 2.68 m/s, 270° | - | - |
| 1777454238 | 26.11° C | 85% | 1009.5 hPa | - | 2.68 m/s, 270° | - | - |
| 1777453338 | 26.11° C | 83% | 1009.1 hPa | - | 0.89 m/s, 270° | - | - |
| 1777452438 | 26.11° C | 83% | 1009.1 hPa | - | 2.68 m/s, 270° | - | - |
| 1777451538 | 26.67° C | 82% | 1009.3 hPa | - | 3.13 m/s, 270° | - | - |
| 1777450638 | 27.22° C | 79% | 1009.3 hPa | - | 2.68 m/s, 315° | - | - |
* Rain since midnight (hover to see other rain measurements)
** Current wind speed in m/s (hover to see current wind gust speed)